EW7003 Weather Reports


Display with metric or nautical units.
time (UTC)temp
F
wind
direction
speed
MPH
gust
MPH
rain 1hr
in
rain 24hr
in
rain mn
in
humidity
%
barometer
mb
20260505024722 58 65 18.0 27.0 0.00 0.00 0.00 43 1007.2
20260505024219 58 57 21.0 28.0 0.00 0.00 0.00 42 1007.1
20260505023716 58 50 21.0 28.0 0.00 0.00 0.00 42 1007.2
20260505023213 59 61 19.0 28.0 0.00 0.00 0.00 42 1007.1
20260505022727 59 52 18.0 25.0 0.00 0.00 0.00 42 1007.0
20260505022224 59 34 20.0 27.0 0.00 0.00 0.00 42 1006.8
20260505021725 59 55 23.0 27.0 0.00 0.00 0.00 41 1006.6
20260505021222 59 42 17.0 27.0 0.00 0.00 0.00 42 1006.3
20260505020719 59 56 18.0 30.0 0.00 0.00 0.00 41 1006.2
20260505020235 60 45 20.0 30.0 0.00 0.00 0.00 40 1006.1
20260505015710 61 41 19.0 31.0 0.00 0.00 0.00 40 1006.2
20260505015226 61 50 24.0 32.0 0.00 0.00 0.00 39 1006.1
20260505014723 62 50 24.0 32.0 0.00 0.00 0.00 38 1006.0
20260505014220 62 61 25.0 30.0 0.00 0.00 0.00 38 1005.6
20260505013721 62 49 22.0 29.0 0.00 0.00 0.00 38 1005.6
20260505013218 62 59 23.0 31.0 0.00 0.00 0.00 38 1005.4
20260505012714 62 51 22.0 31.0 0.00 0.00 0.00 38 1005.2
20260505012211 63 49 20.0 27.0 0.00 0.00 0.00 38 1005.0
20260505011729 63 45 19.0 30.0 0.00 0.00 0.00 38 1004.9
20260505011245 63 360 22.0 30.0 0.00 0.00 0.00 37 1004.8
20260505010721 64 360 21.0 32.0 0.00 0.00 0.00 37 1004.7
20260505010237 64 360 24.0 32.0 0.00 0.00 0.00 36 1004.5
20260505005733 65 35 24.0 34.0 0.00 0.00 0.00 36 1004.6
20260505005250 65 39 24.0 32.0 0.00 0.00 0.00 35 1004.6
20260505004729 66 43 22.0 30.0 0.00 0.00 0.00 34 1004.5
20260505004246 67 44 23.0 30.0 0.00 0.00 0.00 34 1004.5
20260505003722 67 32 22.0 28.0 0.00 0.00 0.00 34 1004.4
20260505003219 67 34 22.0 29.0 0.00 0.00 0.00 34 1004.4
20260505002716 67 32 25.0 29.0 0.00 0.00 0.00 33 1004.3
20260505002212 68 36 24.0 29.0 0.00 0.00 0.00 33 1004.2
20260505001749 69 50 22.0 27.0 0.00 0.00 0.00 31 1004.1
20260505001224 70 46 15.0 20.0 0.00 0.00 0.00 27 1004.2
20260505000741 71 40 11.0 16.0 0.00 0.00 0.00 26 1004.2
20260505000215 71 40 11.0 16.0 0.00 0.00 0.00 26 1004.2
20260504235717 71 23 6.0 12.0 0.00 0.00 0.00 26 1004.1
20260504235213 71 21 8.0 12.0 0.00 0.00 0.00 26 1004.2
20260504234710 71 14 9.0 13.0 0.00 0.00 0.00 26 1004.2
20260504234226 71 32 10.0 13.0 0.00 0.00 0.00 26 1004.1
20260504233723 71 9 5.0 16.0 0.00 0.00 0.00 26 1004.1
20260504233220 71 25 13.0 16.0 0.00 0.00 0.00 26 1004.0
20260504232738 71 38 9.0 14.0 0.00 0.00 0.00 26 1003.9
20260504232217 71 27 9.0 13.0 0.00 0.00 0.00 26 1004.0
20260504231714 71 24 9.0 14.0 0.00 0.00 0.00 26 1004.1
20260504231210 71 14 8.0 13.0 0.00 0.00 0.00 26 1004.0
20260504230727 72 26 9.0 15.0 0.00 0.00 0.00 25 1003.9
20260504230224 72 26 8.0 14.0 0.00 0.00 0.00 24 1003.9
20260504225741 72 21 10.0 14.0 0.00 0.00 0.00 25 1004.0
20260504225216 72 355 10.0 14.0 0.00 0.00 0.00 26 1004.1
20260504224713 72 5 9.0 14.0 0.00 0.00 0.00 27 1004.1
20260504224214 71 325 9.0 14.0 0.00 0.00 0.00 27 1004.2
20260504223751 71 346 9.0 13.0 0.00 0.00 0.00 28 1004.3
20260504223226 70 340 9.0 16.0 0.00 0.00 0.00 28 1004.2
20260504222723 70 337 10.0 17.0 0.00 0.00 0.00 28 1004.3
20260504222220 70 324 12.0 16.0 0.00 0.00 0.00 27 1004.4
20260504221717 70 344 11.0 18.0 0.00 0.00 0.00 28 1004.5
20260504221213 70 316 13.0 18.0 0.00 0.00 0.00 28 1004.6
20260504220710 70 317 9.0 14.0 0.00 0.00 0.00 28 1004.7
20260504220210 70 306 11.0 19.0 0.00 0.00 0.00 27 1004.8
20260504215727 70 293 14.0 29.0 0.00 0.00 0.00 28 1004.8
20260504215224 70 291 17.0 29.0 0.00 0.00 0.00 27 1004.9
20260504214721 71 300 18.0 25.0 0.00 0.00 0.00 27 1004.9
20260504214216 72 311 18.0 25.0 0.00 0.00 0.00 25 1004.9
20260504213712 72 258 11.0 20.0 0.00 0.00 0.00 22 1004.9
20260504213229 72 302 12.0 26.0 0.00 0.00 0.00 22 1004.6
20260504212710 72 26 8.0 27.0 0.00 0.00 0.00 21 1004.4
20260504212227 72 265 10.0 27.0 0.00 0.00 0.00 21 1004.3
20260504211744 72 251 16.0 22.0 0.00 0.00 0.00 21 1004.5
20260504211218 72 229 12.0 20.0 0.00 0.00 0.00 20 1004.4
20260504210735 73 243 14.0 28.0 0.00 0.00 0.00 21 1004.4
20260504210250 73 253 19.0 28.0 0.00 0.00 0.00 21 1004.4
20260504205726 74 236 11.0 19.0 0.00 0.00 0.00 20 1004.4
20260504205241 75 231 10.0 14.0 0.00 0.00 0.00 20 1004.3
20260504204717 75 244 7.0 13.0 0.00 0.00 0.00 18 1004.2
20260504204214 76 189 2.0 4.0 0.00 0.00 0.00 18 1004.1
20260504203715 75 269 2.0 8.0 0.00 0.00 0.00 17 1004.2
20260504203232 75 348 3.0 8.0 0.00 0.00 0.00 16 1004.2
20260504202728 75 258 4.0 6.0 0.00 0.00 0.00 17 1004.3
20260504202244 75 307 1.0 12.0 0.00 0.00 0.00 16 1004.3
20260504201720 75 15 6.0 12.0 0.00 0.00 0.00 16 1004.3
20260504201217 76 333 10.0 12.0 0.00 0.00 0.00 17 1004.3
20260504200734 76 275 9.0 12.0 0.00 0.00 0.00 17 1004.3
20260504200250 76 5 8.0 14.0 0.00 0.00 0.00 17 1004.2
20260504195746 76 360 8.0 14.0 0.00 0.00 0.00 16 1004.3
20260504195222 77 21 7.0 20.0 0.00 0.00 0.00 15 1004.2
20260504194740 77 324 8.0 20.0 0.00 0.00 0.00 15 1004.4
20260504194218 78 310 10.0 15.0 0.00 0.00 0.00 15 1004.4
20260504193715 77 355 4.0 19.0 0.00 0.00 0.00 15 1004.4
20260504193211 77 310 11.0 22.0 0.00 0.00 0.00 15 1004.6
20260504192728 77 313 14.0 22.0 0.00 0.00 0.00 17 1004.5
20260504192226 77 326 11.0 18.0 0.00 0.00 0.00 17 1004.6
20260504191722 77 347 10.0 18.0 0.00 0.00 0.00 16 1004.6
20260504191219 77 26 10.0 18.0 0.00 0.00 0.00 17 1004.7
20260504190720 77 346 10.0 16.0 0.00 0.00 0.00 17 1004.8
20260504190217 77 24 11.0 16.0 0.00 0.00 0.00 18 1004.7
20260504185714 76 17 9.0 15.0 0.00 0.00 0.00 18 1004.9
20260504185210 76 338 9.0 18.0 0.00 0.00 0.00 17 1004.9
20260504184727 76 314 12.0 18.0 0.00 0.00 0.00 19 1005.0
20260504184224 76 343 10.0 17.0 0.00 0.00 0.00 18 1005.2
20260504183741 76 344 12.0 19.0 0.00 0.00 0.00 18 1005.2
20260504183221 76 331 15.0 19.0 0.00 0.00 0.00 19 1005.4
20260504182718 75 331 11.0 17.0 0.00 0.00 0.00 20 1005.4
20260504182215 75 337 13.0 18.0 0.00 0.00 0.00 21 1005.5
20260504181712 74 355 11.0 19.0 0.00 0.00 0.00 20 1005.6
20260504181229 74 360 11.0 19.0 0.00 0.00 0.00 21 1005.7
20260504180726 73 316 8.0 20.0 0.00 0.00 0.00 22 1005.7
20260504180223 73 337 13.0 20.0 0.00 0.00 0.00 21 1005.9
20260504175718 73 13 13.0 19.0 0.00 0.00 0.00 22 1005.9
20260504175240 73 355 10.0 20.0 0.00 0.00 0.00 22 1006.0
20260504174715 73 13 15.0 20.0 0.00 0.00 0.00 23 1006.1
20260504174212 73 5 9.0 19.0 0.00 0.00 0.00 24 1006.2
20260504173729 73 25 12.0 19.0 0.00 0.00 0.00 25 1006.2
20260504173225 72 313 12.0 19.0 0.00 0.00 0.00 25 1006.4
20260504172722 72 329 13.0 19.0 0.00 0.00 0.00 24 1006.4
20260504172219 72 12 11.0 19.0 0.00 0.00 0.00 24 1006.5
20260504171737 72 10 10.0 17.0 0.00 0.00 0.00 27 1006.5
20260504171217 72 341 12.0 16.0 0.00 0.00 0.00 26 1006.6
20260504170713 71 355 11.0 17.0 0.00 0.00 0.00 27 1006.6
20260504170229 71 5 12.0 16.0 0.00 0.00 0.00 27 1006.6
20260504160231 70 321 10.0 13.0 0.00 0.00 0.00 28 1006.4
20260504150718 68 307 10.0 14.0 0.00 0.00 0.00 31 1006.3
20260504150218 68 294 11.0 16.0 0.00 0.00 0.00 31 1006.2
20260504141228 61 274 12.0 16.0 0.00 0.00 0.00 40 1006.4
20260504140725 59 271 10.0 13.0 0.00 0.00 0.00 43 1006.4
20260504140221 58 288 10.0 12.0 0.00 0.00 0.00 44 1006.4
20260504130711 48 258 7.0 10.0 0.00 0.00 0.00 59 1006.4
20260504130228 48 262 8.0 11.0 0.00 0.00 0.00 59 1006.4
20260504120210 41 260 7.0 10.0 0.00 0.00 0.00 65 1006.4
20260504110719 41 262 8.0 9.0 0.00 0.00 0.00 65 1006.2
20260504110216 42 260 8.0 9.0 0.00 0.00 0.00 64 1006.2
20260504100218 43 261 8.0 8.0 0.00 0.00 0.00 64 1006.4
20260504081718 48 260 6.0 8.0 0.00 0.00 0.00 53 1007.0
20260504081215 48 266 6.0 8.0 0.00 0.00 0.00 52 1007.0
20260504080712 49 277 4.0 9.0 0.00 0.00 0.00 52 1007.0
20260504080228 49 260 7.0 9.0 0.00 0.00 0.00 52 1007.0
20260504070229 53 246 7.0 9.0 0.00 0.00 0.00 46 1007.6
20260504060219 57 148 4.0 7.0 0.00 0.00 0.00 42 1007.9
20260504050727 58 142 6.0 11.0 0.00 0.00 0.00 38 1008.5
20260504050244 58 139 5.0 10.0 0.00 0.00 0.00 38 1008.5
20260504045720 57 234 6.0 12.0 0.00 0.00 0.00 39 1008.6
20260504045217 57 232 4.0 12.0 0.00 0.00 0.00 41 1008.5
20260504044718 57 273 1.0 5.0 0.00 0.00 0.00 42 1008.7
20260504044215 57 213 2.0 5.0 0.00 0.00 0.00 41 1008.7
20260504043732 57 150 3.0 7.0 0.00 0.00 0.00 40 1008.7
20260504043248 57 144 4.0 7.0 0.00 0.00 0.00 40 1008.7
20260504042724 57 123 4.0 8.0 0.00 0.00 0.00 41 1008.8
20260504042220 57 86 4.0 8.0 0.00 0.00 0.00 40 1008.9
20260504041716 57 142 4.0 9.0 0.00 0.00 0.00 41 1008.9
20260504041213 57 190 5.0 9.0 0.00 0.00 0.00 40 1009.0
20260504040714 57 123 2.0 9.0 0.00 0.00 0.00 40 1009.0
20260504040250 57 112 2.0 9.0 0.00 0.00 0.00 41 1009.0
20260504035725 57 113 7.0 9.0 0.00 0.00 0.00 41 1008.9
20260504035220 57 157 4.0 6.0 0.00 0.00 0.00 41 1009.0
20260504034717 57 204 4.0 6.0 0.00 0.00 0.00 40 1009.2
20260504034234 58 229 3.0 4.0 0.00 0.00 0.00 42 1009.4
20260504033730 58 144 2.0 3.0 0.00 0.00 0.00 38 1009.4
20260504033227 58 45 1.0 3.0 0.00 0.00 0.00 37 1009.4
20260504032723 58 45 0.0 3.0 0.00 0.00 0.00 37 1009.2
20260504032240 59 45 2.0 3.0 0.00 0.00 0.00 37 1009.2
20260504031720 59 45 2.0 4.0 0.00 0.00 0.00 37 1009.2
20260504031217 59 45 3.0 4.0 0.00 0.00 0.00 37 1009.2
20260504030714 59 46 3.0 5.0 0.00 0.00 0.00 36 1009.2
20260504030230 60 28 3.0 5.0 0.00 0.00 0.00 36 1009.2
20260504025727 60 12 4.0 5.0 0.00 0.00 0.00 36 1009.2
20260504025223 60 31 3.0 4.0 0.00 0.00 0.00 36 1009.1